TimeCDT,TemperatureF,Dew PointF,Humidity,Sea Level PressureIn,VisibilityMPH,Wind Direction,Wind SpeedMPH,Gust SpeedMPH,PrecipitationIn,Events,Conditions,WindDirDegrees,DateUTC
12:53 AM,66.0,61.0,84,29.74,10.0,South,9.2,-,N/A,,Mostly Cloudy,170,2011-05-23 05:53:00
1:03 AM,66.2,60.8,83,29.78,10.0,SSE,9.2,-,N/A,,Mostly Cloudy,150,2011-05-23 06:03:00
1:12 AM,64.4,60.8,88,29.77,10.0,SSE,10.4,-,N/A,,Scattered Clouds,150,2011-05-23 06:12:00
1:53 AM,64.9,61.0,87,29.74,10.0,SSE,10.4,-,N/A,,Clear,150,2011-05-23 06:53:00
2:53 AM,64.9,61.0,87,29.72,10.0,SSE,9.2,-,N/A,,Clear,160,2011-05-23 07:53:00
3:53 AM,64.0,59.0,84,29.72,10.0,South,8.1,-,N/A,,Clear,170,2011-05-23 08:53:00
4:53 AM,64.0,59.0,84,29.73,10.0,South,5.8,-,N/A,,Clear,180,2011-05-23 09:53:00
5:53 AM,64.0,59.0,84,29.72,10.0,SSE,11.5,-,N/A,,Clear,160,2011-05-23 10:53:00
6:53 AM,66.9,60.1,79,29.71,10.0,South,13.8,20.7,N/A,,Clear,180,2011-05-23 11:53:00
7:53 AM,68.0,61.0,78,29.71,10.0,South,13.8,-,N/A,,Partly Cloudy,170,2011-05-23 12:53:00
8:06 AM,69.8,60.8,73,29.72,10.0,South,15.0,-,N/A,Thunderstorm,Thunderstorm,170,2011-05-23 13:06:00
8:42 AM,66.2,62.6,88,29.80,1.8,WNW,23.0,35.7,0.15,Rain-Thunderstorm,Heavy Thunderstorms and Rain,290,2011-05-23 13:42:00
8:45 AM,62.6,57.2,82,29.49,10.0,SW,16.1,-,N/A,,Mostly Cloudy,230,2011-05-23 13:45:00
8:48 AM,64.4,62.6,94,29.84,0.8,WNW,17.3,35.7,0.35,Rain-Thunderstorm,Heavy Thunderstorms with Small Hail,290,2011-05-23 13:48:00
8:50 AM,64.4,62.6,94,29.85,0.8,West,17.3,31.1,0.45,Rain-Thunderstorm,Heavy Thunderstorms with Small Hail,280,2011-05-23 13:50:00
8:53 AM,64.0,63.0,96,29.81,0.8,NW,11.5,21.9,0.57,Rain-Thunderstorm,Heavy Thunderstorms with Small Hail,310,2011-05-23 13:53:00
8:58 AM,64.4,62.6,94,29.82,1.0,NNW,4.6,21.9,0.06,Rain-Thunderstorm,Heavy Thunderstorms with Small Hail,330,2011-05-23 13:58:00
9:04 AM,64.4,64.4,100,29.84,2.0,NW,4.6,-,0.10,Rain-Thunderstorm,Heavy Thunderstorms and Rain,310,2011-05-23 14:04:00
9:16 AM,64.4,64.4,100,29.88,3.0,WSW,10.4,-,0.17,Rain-Thunderstorm,Thunderstorms and Rain,250,2011-05-23 14:16:00
9:24 AM,64.4,64.4,100,29.87,2.0,West,6.9,-,0.24,Rain-Thunderstorm,Heavy Thunderstorms and Rain,260,2011-05-23 14:24:00
9:29 AM,64.4,64.4,100,29.86,3.0,Calm,Calm,-,0.25,Rain-Thunderstorm,Thunderstorms and Rain,0,2011-05-23 14:29:00
9:53 AM,64.9,59.0,81,29.80,7.0,North,28.8,35.7,N/A,Rain-Thunderstorm,Thunderstorms and Rain,350,2011-05-23 14:53:00
10:53 AM,66.0,57.0,73,29.76,10.0,SE,11.5,18.4,0.04,Thunderstorm,Thunderstorm,140,2011-05-23 15:53:00
11:02 AM,66.2,57.2,73,29.79,10.0,ESE,15.0,19.6,N/A,,Mostly Cloudy,120,2011-05-23 16:02:00
11:19 AM,64.4,57.2,77,29.74,10.0,ESE,15.0,20.7,0.00,Rain-Thunderstorm,Light Thunderstorms and Rain,110,2011-05-23 16:19:00
11:49 AM,64.4,57.2,77,29.74,10.0,SE,15.0,32.2,0.00,Thunderstorm,Thunderstorm,130,2011-05-23 16:49:00
11:53 AM,64.9,57.0,75,29.73,10.0,SSE,12.7,23.0,0.00,Thunderstorm,Thunderstorm,150,2011-05-23 16:53:00
12:53 PM,63.0,59.0,87,29.72,10.0,Calm,Calm,-,0.00,Thunderstorm,Thunderstorm,0,2011-05-23 17:53:00
1:53 PM,64.0,60.1,87,29.74,10.0,SW,8.1,-,N/A,Thunderstorm,Thunderstorm,220,2011-05-23 18:53:00
2:53 PM,63.0,62.1,97,29.74,10.0,South,3.5,-,0.00,Rain-Thunderstorm,Light Thunderstorms and Rain,190,2011-05-23 19:53:00
3:17 PM,64.4,62.6,94,29.83,10.0,SW,8.1,-,0.01,Rain-Thunderstorm,Light Thunderstorms and Rain,230,2011-05-23 20:17:00
3:24 PM,64.4,62.6,94,29.80,6.0,South,8.1,16.1,0.02,Rain-Thunderstorm,Thunderstorms and Rain,190,2011-05-23 20:24:00
3:27 PM,64.4,62.6,94,29.77,5.0,SSE,9.2,16.1,0.03,Rain-Thunderstorm,Thunderstorms and Rain,150,2011-05-23 20:27:00
3:53 PM,63.0,63.0,100,29.73,10.0,ESE,8.1,-,0.09,Thunderstorm,Thunderstorm,110,2011-05-23 20:53:00
4:46 PM,64.4,62.6,94,29.72,1.8,NNE,3.5,-,0.08,Rain-Thunderstorm,Thunderstorms and Rain,30,2011-05-23 21:46:00
4:53 PM,63.0,63.0,100,29.72,1.0,Calm,Calm,-,0.12,Rain-Thunderstorm,Thunderstorms and Rain,0,2011-05-23 21:53:00
4:59 PM,62.6,62.6,100,29.76,3.0,SSE,10.4,-,0.00,Rain-Thunderstorm,Light Thunderstorms and Rain,160,2011-05-23 21:59:00
5:06 PM,62.6,62.6,100,29.74,6.0,SSE,15.0,20.7,0.00,Thunderstorm,Overcast,160,2011-05-23 22:06:00
5:27 PM,62.6,62.6,100,29.75,1.8,SE,15.0,20.7,0.09,Rain-Thunderstorm,Heavy Thunderstorms and Rain,140,2011-05-23 22:27:00
5:29 PM,62.6,62.6,100,29.74,1.8,SSE,19.6,24.2,0.10,Rain,Rain,150,2011-05-23 22:29:00
5:33 PM,62.6,62.6,100,29.75,3.0,South,18.4,25.3,0.10,Rain,Light Rain,170,2011-05-23 22:33:00
5:53 PM,63.0,61.0,93,29.71,10.0,SSE,10.4,24.2,0.11,Rain,Light Rain,160,2011-05-23 22:53:00
6:01 PM,62.6,60.8,94,29.75,10.0,South,10.4,18.4,0.00,,Partly Cloudy,180,2011-05-23 23:01:00
6:53 PM,62.1,59.0,90,29.72,10.0,SSE,16.1,19.6,0.08,Rain,Light Rain,160,2011-05-23 23:53:00
7:33 PM,62.6,60.8,94,29.78,1.8,SSE,21.9,28.8,0.39,Rain,Heavy Rain,160,2011-05-24 00:33:00
7:40 PM,62.6,60.8,94,29.78,1.5,SSE,18.4,28.8,0.42,Rain,Rain,150,2011-05-24 00:40:00
7:44 PM,62.6,60.8,94,29.78,4.0,SSE,18.4,28.8,0.43,Rain,Light Rain,150,2011-05-24 00:44:00
7:53 PM,62.1,60.1,93,29.77,10.0,SSE,21.9,28.8,0.43,Rain,Light Rain,160,2011-05-24 00:53:00
8:20 PM,62.6,60.8,94,29.82,10.0,South,28.8,35.7,0.01,Rain-Thunderstorm,Light Rain,180,2011-05-24 01:20:00
8:41 PM,62.6,59.0,88,29.85,10.0,South,16.1,24.2,0.02,Rain-Thunderstorm,Light Rain,190,2011-05-24 01:41:00
8:53 PM,61.0,59.0,93,29.83,7.0,South,20.7,-,0.05,Rain-Thunderstorm,Thunderstorms and Rain,170,2011-05-24 01:53:00
9:17 PM,62.6,59.0,88,29.81,8.0,SSE,19.6,26.5,0.06,Rain,Rain,160,2011-05-24 02:17:00
9:53 PM,61.0,59.0,93,29.78,10.0,SSE,17.3,-,0.06,,Clear,150,2011-05-24 02:53:00
10:53 PM,63.0,59.0,87,29.77,10.0,SE,13.8,23.0,N/A,,Clear,140,2011-05-24 03:53:00
11:53 PM,63.0,59.0,87,29.77,10.0,SSE,13.8,-,N/A,,Clear,150,2011-05-24 04:53:00